CW9352 Weather Reports


Display with metric or nautical units.
time (UTC)temp
F
wind
direction
speed
MPH
gust
MPH
rain 1hr
in
rain 24hr
in
rain mn
in
humidity
%
barometer
mb
20260508175518 72 17 2.0 5.0 0.00 0.39 0.00 88 1014.4
20260508174518 71 63 2.0 4.0 0.00 0.39 0.00 88 1014.3
20260508173559 72 143 2.0 6.0 0.00 0.39 0.00 88 1014.4
20260508172538 72 66 1.0 4.0 0.00 0.39 0.00 87 1014.5
20260508171519 72 54 2.0 6.0 0.00 0.39 0.00 86 1014.7
20260508170519 73 134 3.0 6.0 0.00 0.39 0.00 85 1014.8
20260508165519 72 95 2.0 5.0 0.00 0.39 0.00 87 1014.8
20260508164520 71 40 2.0 4.0 0.00 0.39 0.00 87 1015.1
20260508163521 71 8 2.0 4.0 0.00 0.39 0.00 87 1015.1
20260508162521 71 23 1.0 3.0 0.00 0.43 0.00 87 1015.4
20260508161519 71 9 1.0 4.0 0.00 0.49 0.00 87 1015.4
20260508160517 70 351 2.0 6.0 0.00 0.49 0.00 87 1015.5
20260508155606 0 357 4.0 6.0 0.00 0.49 0.00
20260508155020 70 353 3.0 6.0 0.00 0.49 0.00 88 1015.5
20260508154018 71 11 3.0 7.0 0.00 0.49 0.00 87 1015.5
20260508153037 71 2 2.0 6.0 0.00 0.51 0.00 87 1015.5
20260508152038 71 15 3.0 6.0 0.00 0.59 0.00 87 1015.6
20260508151021 71 7 3.0 5.0 0.00 0.59 0.00 86 1015.6
20260508150018 71 358 3.0 7.0 0.00 0.59 0.00 86 1015.2
20260508145038 71 25 4.0 8.0 0.00 0.59 0.00 86 1015.0
20260508144018 70 22 3.0 6.0 0.00 0.59 0.00 86 1015.0
20260508143018 70 15 2.0 4.0 0.00 0.59 0.00 87 1015.1
20260508142023 70 9 2.0 5.0 0.00 0.59 0.00 87 1015.5
20260508141019 69 4 4.0 7.0 0.00 0.59 0.00 87 1015.6
20260508140023 69 347 3.0 4.0 0.00 0.59 0.00 89 1015.8
20260508135023 68 343 2.0 3.0 0.00 0.59 0.00 90 1016.0
20260508134023 68 348 1.0 3.0 0.00 0.59 0.00 90 1016.2
20260508133023 68 357 2.0 3.0 0.00 0.59 0.00 91 1016.0
20260508132024 68 342 1.0 3.0 0.00 0.59 0.00 91 1016.1
20260508131044 68 346 1.0 3.0 0.00 0.59 0.00 90 1016.1
20260508130024 68 347 1.0 3.0 0.00 0.59 0.00 90 1016.0
20260508125025 68 311 1.0 2.0 0.00 0.59 0.00 90 1015.9
20260508124024 68 13 1.0 2.0 0.00 0.59 0.00 90 1015.8
20260508123025 67 7 1.0 3.0 0.00 0.59 0.00 91 1015.8
20260508122044 67 271 0.0 1.0 0.00 0.59 0.00 91 1015.8
20260508121025 67 360 1.0 2.0 0.00 0.59 0.00 91 1015.4
20260508120025 67 346 2.0 3.0 0.00 0.59 0.00 91 1015.4
20260508115025 67 339 1.0 2.0 0.00 0.59 0.00 91 1015.3
20260508114025 67 355 2.0 3.0 0.00 0.59 0.00 92 1015.1
20260508113045 67 351 1.0 3.0 0.00 0.59 0.00 92 1014.9
20260508112026 67 344 2.0 4.0 0.00 0.59 0.00 92 1015.0
20260508111026 67 343 1.0 3.0 0.00 0.59 0.00 92 1015.0
20260508110047 67 345 2.0 4.0 0.00 0.59 0.00 92 1014.8
20260508105026 67 333 1.0 2.0 0.00 0.59 0.00 92 1014.9
20260508104026 67 350 1.0 3.0 0.00 0.59 0.00 92 1014.6
20260508103027 67 337 1.0 2.0 0.00 0.59 0.00 91 1014.5
20260508102026 67 352 1.0 2.0 0.00 0.59 0.00 91 1014.0
20260508101027 67 348 1.0 2.0 0.00 0.59 0.00 92 1014.0
20260508095547 67 356 1.0 2.0 0.00 0.59 0.00 92 1013.9
20260508094527 67 348 2.0 3.0 0.00 0.59 0.00 92 1014.1
20260508093527 67 356 2.0 4.0 0.00 0.59 0.00 92 1014.1
20260508092528 67 349 1.0 4.0 0.00 0.59 0.00 91 1014.2
20260508091528 67 358 2.0 4.0 0.00 0.59 0.00 91 1013.9
20260508090608 67 354 2.0 3.0 0.00 0.59 0.00 92 1013.9
20260508085528 67 3 2.0 4.0 0.00 0.59 0.00 93 1013.8
20260508084528 67 355 2.0 4.0 0.00 0.59 0.00 94 1013.9
20260508083529 67 347 1.0 2.0 0.00 0.59 0.00 94 1013.9
20260508082528 67 332 1.0 2.0 0.00 0.59 0.00 94 1013.8
20260508081549 67 354 1.0 2.0 0.00 0.59 0.00 94 1013.6
20260508080529 67 357 1.0 3.0 0.00 0.59 0.00 94 1014.0
20260508075529 67 334 1.0 2.0 0.00 0.59 0.00 94 1013.7
20260508074550 67 355 2.0 3.0 0.00 0.59 0.00 93 1013.7
20260508073529 67 337 1.0 2.0 0.00 0.59 0.00 93 1013.9
20260508072516 68 2 2.0 3.0 0.00 0.59 0.00 93 1014.1
20260508071529 68 1 2.0 3.0 0.00 0.59 0.00 93 1014.2
20260508070530 68 339 1.0 3.0 0.00 0.59 0.00 93 1014.4
20260508065520 68 2 2.0 5.0 0.00 0.59 0.00 93 1014.3
20260508064550 68 336 1.0 3.0 0.00 0.59 0.00 93 1014.6
20260508063530 68 342 2.0 3.0 0.00 0.59 0.00 93 1014.1
20260508062517 68 3 2.0 3.0 0.00 0.59 0.00 93 1014.3
20260508061517 68 333 1.0 2.0 0.00 0.59 0.00 92 1014.6
20260508060518 68 345 2.0 5.0 0.00 0.59 0.00 92 1014.6
20260508055518 69 335 1.0 2.0 0.00 0.59 0.00 92 1014.8
20260508054518 69 351 3.0 5.0 0.00 0.59 0.00 92 1014.4
20260508053518 69 345 2.0 5.0 0.00 0.59 0.00 91 1014.7
20260508052518 69 341 2.0 5.0 0.00 0.59 0.00 91 1014.8
20260508051519 70 340 1.0 3.0 0.00 0.59 0.00 91 1014.8
20260508050519 70 342 1.0 3.0 0.00 0.59 0.00 90 1014.7
20260508045519 70 350 2.0 4.0 0.00 0.59 0.59 91 1014.4
20260508044519 70 349 1.0 4.0 0.00 0.59 0.59 91 1014.6
20260508043539 71 356 2.0 3.0 0.00 0.59 0.59 92 1014.3
20260508042519 71 345 2.0 5.0 0.00 0.59 0.59 92 1014.4
20260508041520 71 0 2.0 4.0 0.00 0.59 0.59 92 1014.7
20260508040519 72 348 2.0 4.0 0.00 0.59 0.59 91 1014.7
20260508035523 72 345 2.0 5.0 0.00 0.59 0.59 91 1014.8
20260508034520 72 345 2.0 5.0 0.00 0.59 0.59 91 1014.6
20260508033520 73 354 2.0 4.0 0.00 0.59 0.59 92 1014.7
20260508032540 73 333 1.0 3.0 0.00 0.59 0.59 92 1015.0
20260508031541 73 341 1.0 3.0 0.00 0.59 0.59 92 1014.5
20260508030621 73 351 0.0 3.0 0.00 0.59 0.59 92 1014.6
20260508025520 74 330 0.0 2.0 0.00 0.59 0.59 92 1014.6
20260508024600 74 3 0.0 1.0 0.00 0.59 0.59 92 1014.7
20260508023521 74 134 0.0 1.0 0.00 0.59 0.59 92 1014.8
20260508022521 74 356 0.0 1.0 0.00 0.59 0.59 93 1014.8
20260508021521 74 0.0 0.0 0.00 0.59 0.59 92 1014.6
20260508020521 74 0.0 0.0 0.00 0.59 0.59 92 1014.2
20260508015521 75 0.0 0.0 0.00 0.59 0.59 92 1014.2
20260508014522 75 164 0.0 0.0 0.00 0.59 0.59 91 1014.0
20260508013542 75 360 0.0 2.0 0.00 0.59 0.59 92 1013.7
20260508012522 75 352 0.0 0.0 0.00 0.59 0.59 92 1013.8
20260508011522 74 6 1.0 3.0 0.00 0.59 0.59 93 1013.4
20260508010522 74 356 1.0 3.0 0.00 0.59 0.59 94 1013.3
20260508005543 75 352 1.0 2.0 0.00 0.59 0.59 95 1013.5
20260508004522 75 0.0 0.0 0.00 0.59 0.59 95 1013.4
20260508003523 75 0.0 0.0 0.00 0.59 0.59 95 1013.2
20260508002523 76 207 0.0 1.0 0.00 0.59 0.59 94 1013.3
20260508001523 76 45 0.0 1.0 0.00 0.59 0.59 94 1012.9
20260508000523 76 214 0.0 1.0 0.00 0.59 0.59 94 1013.1
20260507235523 76 47 0.0 0.0 0.00 0.59 0.59 93 1012.9
20260507234704 76 183 1.0 2.0 0.00 0.59 0.59 93 1013.1
20260507233544 77 48 0.0 1.0 0.00 0.59 0.59 92 1012.8
20260507232524 78 193 0.0 1.0 0.00 0.59 0.59 91 1013.1
20260507231524 78 147 0.0 2.0 0.00 0.59 0.59 90 1013.1
20260507230525 78 17 1.0 2.0 0.00 0.59 0.59 89 1013.0
20260507225524 78 334 0.0 0.0 0.00 0.59 0.59 89 1013.0
20260507224545 78 12 0.0 2.0 0.00 0.59 0.59 90 1013.0
20260507223545 78 17 1.0 3.0 0.00 0.59 0.59 89 1013.0
20260507222525 78 0.0 0.0 0.00 0.59 0.59 90 1013.0
20260507221605 78 356 1.0 3.0 0.00 0.59 0.59 90 1012.9
20260507220606 78 30 1.0 2.0 0.00 0.59 0.59 91 1013.0
20260507215525 78 21 0.0 1.0 0.00 0.59 0.59 91 1012.9
20260507214526 77 359 1.0 3.0 0.00 0.59 0.59 91 1012.8
20260507213526 77 358 1.0 4.0 0.00 0.59 0.59 92 1012.8
20260507212526 78 317 0.0 2.0 0.00 0.59 0.59 92 1012.8
20260507211526 77 15 1.0 4.0 0.00 0.59 0.59 93 1012.8
20260507210537 77 359 0.0 2.0 0.00 0.59 0.59 94 1012.9
20260507205517 76 1 0.0 2.0 0.00 0.59 0.59 95 1012.9
20260507204518 76 10 0.0 1.0 0.01 0.59 0.59 95 1012.9
20260507203038 75 0.0 0.0 0.04 0.59 0.59 97 1013.1
20260507202518 74 208 1.0 3.0 0.05 0.59 0.59 97 1013.1
20260507201518 74 188 2.0 3.0 0.09 0.59 0.59 98 1013.2
20260507200518 74 207 1.0 4.0 0.16 0.59 0.59 98 1013.1
20260507195528 73 148 0.0 1.0 0.33 0.59 0.59 98 1012.9
20260507194527 73 205 0.0 2.0 0.38 0.59 0.59 97 1013.3
20260507193528 73 350 0.0 1.0 0.36 0.56 0.56 97 1013.1
20260507192548 73 343 0.0 1.0 0.34 0.54 0.54 97 1013.5
20260507191528 73 0.0 0.0 0.30 0.51 0.51 97 1013.8
20260507190528 73 9 0.0 1.0 0.23 0.44 0.44 97 1013.8
20260507185528 74 7 1.0 2.0 0.06 0.27 0.27 97 1013.8
20260507184502 0 358 1.0 1.0 0.00 0.21 0.21
20260507184029 73 0.0 0.0 0.00 0.21 0.21 97 1013.8
20260507183029 73 357 0.0 1.0 0.00 0.21 0.21 97 1013.9
20260507182129 73 0.0 0.0 0.00 0.21 0.21 97 1014.0
20260507181029 73 354 0.0 1.0 0.00 0.21 0.21 96 1014.1
20260507180029 73 347 0.0 1.0 0.00 0.21 0.21 96 1014.2